This demonstration page uses our WeatherBlox Daily Observations layout. Learn more.

Left ArrowRight Arrow

Hourly Observations for April 21, 2019

Temp ( °F °C ) Dew Point ( °F °C ) Humidity (%) Winds ( mph kmh ) Pressure ( in mb ) Visibility ( mi km ) Precip ( " mm )
12:53 am 00:53 Partly Cloudy 47 8.3 46 7.8 97 97 SSW 3 6 29.96 1015 10 16 0.00 0.00
1:53 am 01:53 Clear 45 7.2 45 7.2 100 100 Calm 29.96 1015 10 16 0.00 0.00
2:39 am 02:39 Partly Cloudy with Mist and Fog 45 7.2 45 7.2 100 100 SSW 5 7 29.98 1015 4 6 0.00 0.00
2:48 am 02:48 Mostly Cloudy with Mist and Fog 45 7 45 7 100 100 SSW 3 6 29.98 1015 5 8 0.00 0.00
2:53 am 02:53 Mostly Cloudy with Mist and Fog 45 7.2 45 7.2 100 100 SSW 3 6 29.97 1015 5 8 0.00 0.00
3:26 am 03:26 Partly Cloudy 45 7.2 45 7.2 100 100 SSW 3 6 29.99 1016 10 16 0.00 0.00
3:53 am 03:53 Clear 44 6.7 44 6.7 100 100 SW 5 7 29.97 1015 10 16 0.00 0.00
4:53 am 04:53 Clear 44 6.7 44 6.7 100 100 Calm 29.99 1016 10 16 0.00 0.00
5:53 am 05:53 Clear 43 6.1 42 5.6 97 97 SSE 3 6 30.02 1017 10 16 0.00 0.00
6:53 am 06:53 Clear 41 5 40 4.4 96 96 Calm 30.05 1018 10 16 0.00 0.00
7:53 am 07:53 Sunny 45 7.2 42 5.6 90 90 Calm 30.07 1018 10 16 0.00 0.00
8:53 am 08:53 Sunny 50 10 43 6.1 77 77 VRB 7 11 30.09 1019 10 16 0.00 0.00
9:53 am 09:53 Sunny 55 12.8 41 5 59 59 WNW 8 13 30.10 1019 10 16 0.00 0.00
10:53 am 10:53 Sunny 59 15 40 4.4 49 49 W 8 13 30.12 1020 10 16 0.00 0.00
11:53 am 11:53 Sunny 63 17.2 34 1.1 34 34 NW 14 22 30.12 1020 10 16 0.00 0.00
12:53 pm 12:53 Sunny 66 18.9 34 1.1 30 30 NNW 10 17 30.11 1020 10 16 0.00 0.00
1:53 pm 13:53 Sunny 68 20 35 1.7 30 30 NNW 15 24 30.11 1020 10 16 0.00 0.00
2:53 pm 14:53 Sunny 69 20.6 35 1.7 29 29 WNW 15 24 30.10 1019 10 16 0.00 0.00
3:53 pm 15:53 Sunny 70 21.1 32 0 25 25 WNW 15 24 30.09 1019 10 16 0.00 0.00
4:53 pm 16:53 Sunny 72 22.2 33 0.6 24 24 NNW 10 17 30.07 1018 10 16 0.00 0.00
5:53 pm 17:53 Sunny 72 22.2 31 -0.6 22 22 NNW 12 19 30.08 1019 10 16 0.00 0.00
6:53 pm 18:53 Sunny 71 21.7 32 0 24 24 NNW 10 17 30.09 1019 10 16 0.00 0.00
8:53 pm 20:53 Clear 59 15 43 6.1 56 56 Calm 30.12 1020 10 16 0.00 0.00
9:53 pm 21:53 Clear 56 13.3 45 7.2 67 67 Calm 30.14 1021 10 16 0.00 0.00
10:53 pm 22:53 Clear 53 11.7 46 7.8 77 77 Calm 30.15 1021 10 16 0.00 0.00
11:53 pm 23:53 Clear 50 10 47 8.3 89 89 Calm 30.16 1021 10 16 0.00 0.00

Powered by AerisWeather